Regional Weather Roundup
Issued by NWS Albany, NY

Home | Current Version | Previous Version | Graphics & Text | Print | Product List | Glossary On
Versions: 1 2 3 4 5 6 7 8 9 10 11 12 13 14 15 16 17 18 19 20 21 22 23 24 25 26 27 28 29 30 31 32 33 34 35 36 37 38 39 40 41 42 43 44 45 46 47 48 49 50
324
ASUS41 KALY 150210
RWRALY

NEW YORK STATE HOURLY WEATHER ROUNDUP
NATIONAL WEATHER SERVICE ALBANY NY
900 PM EST THU DEC 14 2017

NOTE: "FAIR" INDICATES FEW OR NO CLOUDS BELOW 12,000 FEET WITH NO
SIGNIFICANT WEATHER AND/OR NO OBSTRUCTIONS TO VISIBILITY.

NYZ032-033-038>043-046>054-057>066-NYZ062>081-082-084-150300-
EAST


CITY           SKY/WX    TMP DP  RH WIND       PRES   REMARKS
ALBANY         MOCLDY    17   4  56 SW8       30.02R WCI   7
GLENS FALLS    CLEAR      8   1  73 CALM      29.98R
POUGHKEEPSIE   CLEAR     18   0  45 W6        30.04R WCI  10
NEWBURGH       CLEAR    N/A N/A N/A W6        30.04
MONTGOMERY     CLEAR     14   1  56 CALM      30.03R
WHITE PLAINS   PTCLDY    20   3  48 NW13      30.02R WCI   7
ISLIP          CLOUDY    24   6  46 NW16      30.04R WCI  11
NEW YORK CITY  PTCLDY    27   9  46 NW16      30.07R WCI  15
CENTRAL PARK   PTCLDY    25   6  44 MISG      30.08R
$$

NYZ005>009-017-018-044>046-055-056-150300-
CENTRAL


CITY           SKY/WX    TMP DP  RH WIND       PRES   REMARKS
FULTON         LGT SNOW  17  11  77 SW10      30.01R WCI   5
SYRACUSE       CLOUDY    17   9  70 W13       30.01R WCI   4
ROME           LGT SNOW  15  12  88 W3        30.02R FOG
ELMIRA         PTCLDY     8   2  76 CALM      30.02S
BINGHAMTON     CLEAR      9   0  67 W8        29.94S WCI  -3
MONTICELLO     CLEAR      7   1  76 W6        29.97R WCI  -3
$$

NYZ026>034-041>043-087-150300-
NORTH


CITY           SKY/WX    TMP DP  RH WIND       PRES   REMARKS
WATERTOWN      MOCLDY    17  10  74 W10       30.00R WCI   5
FORT DRUM      NOT AVBL
OGDENSBURG     FAIR       6  -1  75 SW5       29.97R WCI  -3
MASSENA        CLEAR      4  -3  73 SW9       29.98R WCI -10
SARANAC LAKE   CLEAR      1  -3  83 W3        29.83R
PLATTSBURGH    CLEAR      9  -3  58 VRB5      29.95R WCI   1
$$

NYZ001>004-010>016-019>021-085-150300-
WEST


CITY           SKY/WX    TMP DP  RH WIND       PRES   REMARKS
NIAGARA FALLS  CLEAR     15   7  70 SW7       30.02S WCI   5
BUFFALO        PTCLDY    17  11  77 W7        30.02R WCI   8
DUNKIRK        CLOUDY    21  13  71 SW8       30.03S WCI  11
JAMESTOWN      FLURRIES  17  12  80 SW8       29.97R WCI   7
WELLSVILLE     CLOUDY    16   9  74 W7        29.94R WCI   6
ROCHESTER      MOCLDY    16   9  74 SW8       30.02S WCI   5
PENN YAN       MOCLDY    15   6  67 SW8       30.01R WCI   4
$$

             KEY
       WCI = WIND CHILL INDEX
       VSB = VISIBILITY
       HX  = HEAT INDEX
$$




USA.gov is the U.S. government's official web portal to all federal, state and local government web resources and services.